Regional Weather Roundup
Issued by NWS

Home | Current Version | Previous Version | Graphics & Text | Print | Product List | Glossary Off
Versions: 1 2 3 4 5 6 7 8 9 10 11 12 13 14 15 16 17 18 19 20 21 22 23 24 25 26 27 28 29 30 31 32 33 34 35 36 37 38 39 40 41 42 43 44 45 46 47 48 49 50

256
ASUS43 KMKX 251610
RWRWI

WISCONSIN REGIONAL WEATHER ROUNDUP
NATIONAL WEATHER SERVICE MILWAUKEE/SULLIVAN WI
1100 AM CDT THU MAY 25 2017

NOTE: "FAIR" INDICATES FEW OR NO CLOUDS BELOW 12,000 FEET WITH NO
SIGNIFICANT WEATHER AND/OR OBSTRUCTIONS TO VISIBILITY.

WIZ001-002-006>008-014>016-023>028-251700-
NORTHWEST WISCONSIN

CITY           SKY/WX    TMP DP  RH WIND       PRES   REMARKS
SUPERIOR ARPT  NOT AVBL
ASHLAND        SUNNY     58  47  66 N7        29.75F
HAYWARD        MOSUNNY   63  46  54 SE9       29.72F
SIREN          MOSUNNY   63  45  52 SE5       29.70F
CUMBERLAND     PTSUNNY   59  45  58 SE5       29.71F
RICE LAKE      CLOUDY    61  46  58 SE3       29.73S
CHETEK         SUNNY     61  48  62 CALM      29.72S
LADYSMITH      MOSUNNY   64  50  61 E6        29.73F
EAU CLAIRE     PTSUNNY   64  49  57 E5        29.70F
MENOMONIE      MOSUNNY   63  51  65 SE7       29.71F
NEW RICHMOND   MOSUNNY   62  47  57 SE8       29.70F
OSCEOLA        PTSUNNY   64  50  60 E15       29.71F
$$

WIZ003>005-009-010-017-018-251700-
NORTH CENTRAL WISCONSIN

CITY           SKY/WX    TMP DP  RH WIND       PRES   REMARKS
MANITOWISH WTR MOSUNNY   62  47  58 E5        29.72F
ARBOR VITAE    SUNNY     64  48  56 CALM      29.71F
WOODRUFF       SUNNY     64  48  56 CALM      29.71F
RHINELANDER    SUNNY     65  49  56 E6        29.71F
EAGLE RIVER    SUNNY     65  45  49 NE9       29.71F
LAND O LAKES   SUNNY     64  46  51 N8        29.73F
PHILLIPS       PTSUNNY   61  49  66 CALM      29.71F
TOMAHAWK       SUNNY     64  49  57 SE6       29.71F
MEDFORD        PTSUNNY   62  51  66 CALM      29.71S
MERRILL        SUNNY     65  50  58 NE5       29.70F
$$

WIZ029-030-035-036-043>047-251700-
CENTRAL WISCONSIN

CITY           SKY/WX    TMP DP  RH WIND       PRES   REMARKS
WAUSAU         PTSUNNY   65  51  60 VRB7      29.68F
MOSINEE        PTSUNNY   64  54  68 NE5       29.70F
MARSHFIELD     SUNNY     65  52  62 NE6       29.68F
STEVENS POINT  MOSUNNY   64  52  64 E8        29.69S
WAUPACA        SUNNY     66  53  62 N8        29.69S
WAUTOMA        MOSUNNY   65  53  65 E8        29.69S
WISC RAPIDS    PTSUNNY   67  53  61 N6        29.70F
CAMP DOUGLAS   PTSUNNY   64  54  68 NW7       29.69S
$$

WIZ011>013-019>022-031-037>040-048>050-251700-
NORTHEAST WISCONSIN

CITY           SKY/WX    TMP DP  RH WIND       PRES   REMARKS
ANTIGO         MOSUNNY   64  52  65 NE8       29.71S
SHAWANO        SUNNY     66  54  65 E7        29.69F
OCONTO         MOSUNNY   62  51  69 E9        29.68S
STURGEON BAY   SUNNY     58  50  75 N15       29.68F
GREEN BAY      SUNNY     62  56  80 NE14      29.68F
MANITOWOC      MOSUNNY   61  52  72 NE10      29.67R
APPLETON       PTSUNNY   63  50  63 N10G20    29.66F
CLINTONVILLE   SUNNY     63  50  63 NE7       29.68F
OSHKOSH        SUNNY     60  52  74 NE14      29.67S
$$

WIZ032>034-041-042-053>061-251700-
SOUTHWEST WISCONSIN

CITY           SKY/WX    TMP DP  RH WIND       PRES   REMARKS
LA CROSSE      CLOUDY    62  52  69 NE6       29.70F
SPARTA         MOSUNNY   61  53  74 CALM      29.70F
VIROQUA        CLOUDY    56  51  83 MISG      29.71F
BOSCOBEL       CLOUDY    61  52  72 VRB3      29.70F
PRAIRIE DU CHI PTSUNNY   60  50  69 N6        29.71S
PLATTEVILLE    CLOUDY    56  54  92 N8        29.71R
$$

WIZ056-057-062-063-064-067-068-251700-
SOUTH CENTRAL WISCONSIN

CITY           SKY/WX    TMP DP  RH WIND       PRES   REMARKS
REEDSBURG      CLOUDY    58  53  83 CALM      29.69S
BARABOO/DELLS  PTSUNNY   61  52  71 NE3       29.69S
LONE ROCK      CLOUDY    60  51  72 N7        29.70S
MINERAL POINT  CLOUDY    57  54  88 NW5       29.70R
MADISON        PTSUNNY   58  52  80 NE8       29.68S
MIDDLETON      PTSUNNY   60  54  79 N3        29.68F
WATERTOWN      CLOUDY    57  53  88 N8        29.67R
MONROE         CLOUDY    55  52  88 N7        29.68S
JANESVILLE     CLOUDY    57  55  94 N14       29.67R
$$

WIZ051-052-058>065-066-070>072-251700-
SOUTHEAST WISCONSIN

CITY           SKY/WX    TMP DP  RH WIND       PRES   REMARKS
MILWAUKEE      MOSUNNY   61  52  72 NE16      29.64S
WAUKESHA       PTSUNNY   59  52  77 NW9       29.66R
MILWAUKEE/TIMM PTSUNNY   63  52  67 N9G17     29.64F
RACINE         SUNNY     60  51  72 N16G24    29.65R
KENOSHA        CLOUDY    62  54  74 NW10      29.63S
FOND DU LAC    CLOUDY    59  51  75 N9        29.68S
SHEBOYGAN      PTSUNNY   62  55  77 N13G18    29.64F
WEST BEND      CLOUDY    61  54  77 N8        29.65R
JUNEAU         CLOUDY    56  51  85 N7        29.69R
$$

LSZ147-162-251700-
LAKE SUPERIOR

STATION/POSITION TIME  TEMP    WIND        PRES    WAVE
                       AIR SEA DIR/SP/G            HT/PER
                 (UTC) (F)     (DEG/KT/KT) (MB)    (FT/S)
$$

LMZ867-665-643>646-251700-
LAKE MICHIGAN

STATION/POSITION TIME  TEMP    WIND        PRES    WAVE
                       AIR SEA DIR/SP/G            HT/PER
                 (UTC) (F)     (DEG/KT/KT) (MB)    (FT/S)
$$

TC  - TEMPERATURE IN CELSIUS
VSB - VISIBILITY IN STATUTE MILES
WCI - WIND CHILL INDEX
HX  - HEAT INDEX





USA.gov is the U.S. government's official web portal to all federal, state and local government web resources and services.